Home   Weather   Burgdorf   Past weeks

Flag for Germany Past Weather in Burgdorf, Lower Saxony, Germany — Yesterday and Last 2 Weeks

45 °F


Feels Like: 41 °F
Forecast: 39 / 50 °F
Wind: 7 mph from Northeast

Location: Celle Airport

Current Time: Oct 25, 2016 at 3:31:21 AM

Latest Report: Oct 25, 2016 at 2:20 AM

Visibility: 2 mi

Pressure: 30.04 "Hg

Humidity: 100%

Dew Point: 45 °F

Location of BurgdorfLocation

Past Weather in Burgdorf — Graph


Burgdorf Temperature Yesterday

Maximum temperature yesterday: 45 °F (at 12:20 PM)
Minimum temperature yesterday: 37 °F (at 12:20 AM)
Average temperature yesterday: 42 °F

High & Low Weather Summary for the Past Weeks

High63 °F (Oct 16, 3:20 PM)100% (Oct 10, 2:20 AM)30.27 "Hg (Oct 10, 2:20 AM)
Low34 °F (Oct 23, 2:20 AM)54% (Oct 23, 3:20 PM)29.77 "Hg (Oct 15, 2:20 AM)
Average46 °F91%30.04 "Hg
* Reported Oct 10 2:20 AM — Oct 25 2:20 AM, Burgdorf, Weather by CustomWeather, © 2016

Note: Actual official high and low records may vary slightly from our data, if they occured in-between our weather recording intervals... More about our weather records


Burgdorf Weather History for the Previous 24 Hours

Scroll right to see more
Time TempWeatherWind HumidityBarometerVisibility
2:20 AM
Tue, Oct 25
45 °FFog.7 mph100%30.04 "Hg2 mi
1:20 AM45 °FDrizzle. Fog.6 mph100%30.04 "Hg2 mi
12:20 AM45 °FDrizzle. Fog.6 mph100%30.01 "Hg1 mi
11:20 PM
Mon, Oct 24
45 °FDrizzle. Fog.8 mph100%30.04 "Hg1 mi
10:20 PM45 °FLight rain. Fog.5 mph100%30.04 "Hg2 mi
9:20 PM45 °FFog.6 mph100%30.01 "Hg2 mi
8:20 PM45 °FFog.8 mph93%30.01 "Hg2 mi
7:52 PM45 °FFog.8 mph100%30.01 "Hg2 mi
7:20 PM45 °FDrizzle. Fog.6 mph93%30.01 "Hg1 mi
6:20 PM45 °FDrizzle. Fog.7 mph93%30.04 "Hg1 mi
5:20 PM45 °FDrizzle. Fog.7 mph93%30.01 "Hg1 mi
4:20 PM45 °FLight rain. Fog.9 mph87%30.01 "Hg3 mi
3:20 PM45 °FMostly cloudy.12 mph93%30.01 "Hg4 mi
2:50 PM45 °FPartly sunny.10 mph87%30.01 "Hg4 mi
2:20 PM45 °FBroken clouds.10 mph87%30.01 "Hg4 mi
1:20 PM45 °FBroken clouds.8 mph93%30.01 "Hg4 mi
12:20 PM45 °FBroken clouds.8 mph87%30.01 "Hg4 mi
11:20 AM43 °FFog.8 mph93%30.04 "Hg3 mi
10:20 AM41 °FFog.7 mph100%30.04 "Hg1 mi
10:01 AM39 °FFog.7 mph100%30.04 "Hg1 mi
9:20 AM39 °FFog.6 mph100%30.01 "Hg1 mi
8:20 AM39 °FFog.7 mph100%30.01 "Hg1 mi
7:20 AM39 °FFog.7 mph100%30.01 "Hg1 mi
6:52 AM39 °FFog.8 mph100%30.01 "Hg1 mi
6:20 AM41 °FFog.7 mph100%30.01 "Hg1 mi
5:20 AM41 °FFog.7 mph100%29.98 "Hg1 mi
4:20 AM41 °FFog.6 mph93%29.98 "Hg1 mi
3:20 AM39 °FFog.3 mph100%29.98 "Hg1 mi
Weather by CustomWeather, © 2016

See weather overviewHow to use our weather pages